Regional Weather Roundup
Issued by NWS Grand Forks, ND

Home | Current Version | Previous Version | Graphics & Text | Print | Product List | Glossary On
Versions: 1 2 3 4 5 6 7 8 9 10 11 12 13 14 15 16 17 18 19 20 21 22 23 24 25 26 27 28 29 30 31 32 33 34 35 36 37 38 39 40 41 42 43 44 45 46 47 48 49 50
000
ASUS43 KFGF 211931
RWRFGF
PRAIRIE TO PINES  WEATHER ROUNDUP
NATIONAL WEATHER SERVICE EASTERN NORTH DAKOTA/GRAND FORKS ND
200 PM CDT FRI JUL 21 2017

 **SATELLITE DATA USED TO AUGMENT SKY COVER AT AUTOMATED STATIONS**
 *****  WEATHER ACROSS EASTERN NORTH DAKOTA  *****

CITY           SKY/WX    TMP DP  RH WIND       PRES   REMARKS
GRAND FORKS    FAIR      88  73  61 NW5       29.76F HX  95
GRAND FRKS AFB FAIR      86  70  58 CALM      29.76F HX  90
DEVILS LAKE    LGT RAIN  79  69  71 NW9       29.83R
FARGO          FAIR      91  70  49 N6        29.76F HX  96
WAHPETON ARPT  MOCLDY    82  72  69 SE10      29.79S
$$

 ***** WEATHER ACROSS CENTRAL AND WESTERN NORTH DAKOTA  *****

CITY           SKY/WX    TMP DP  RH WIND       PRES   REMARKS
BISMARCK       FAIR      87  68  52 S7        29.81F HX  90
MINOT          FAIR      80  64  58 E12       29.77F
JAMESTOWN      FAIR      91  64  40 S7        29.79F HX  92
MINOT AFB      FAIR      77  64  64 SE13      29.75F
GARRISON         N/A     82  67  60 SE13      29.80F
WILLISTON      FAIR      86  60  41 VRB6      29.84S
DICKINSON      FAIR      86  63  45 E3        29.84F
HETTINGER      FAIR      87  61  41 W7        29.88R
$$

 *****  OTHER AIRPORT OBSERVATIONS IN OUR AREA  *****

CITY           SKY/WX    TMP DP  RH WIND       PRES   REMARKS
WALHALLA       NOT AVBL
GRAFTON AIRPOR MOCLDY    82  72  69 VRB5      29.79R
VALLEY CITY AR   N/A     90  64  43 S8        29.80F HX  91
CANDO          NOT AVBL
CAVALIER APRT  FAIR      81  72  74 CALM      29.80R
GWINNER          N/A     88  75  66 CALM      29.78F HX  97
SHEYENNE NWR     N/A     91  73  55 W7        29.95S HX  99
ROLLA            N/A     72  72 100 SE9       29.79F
 ***** THE ABOVE OBSERVATIONS ARE NON NWS ARE NOT QUALITY
       CONTROLLED AND MAY MIS-REPORT RAIN FOR SNOW...
$$

  *****  WEATHER ACROSS NORTHERN MINNESOTA  *****

CITY           SKY/WX    TMP DP  RH WIND       PRES   REMARKS
FLAG ISLAND    FAIR      73  57  56 E3        29.85S
WARROAD        FAIR      79  68  69 E10       29.82F
ROSEAU         FAIR      81  66  61 S6        29.81R
HALLOCK        FAIR      81  72  74 NE8       29.77S
THF RVR FALLS  FAIR      83  72  69 SW6       29.79F
BAUDETTE       FAIR      76  62  62 E7        29.85S
WASKISH        CLOUDY    82  61  47 SE5       29.82S
CROOKSTON      FAIR      84  72  65 SW3       29.77F
STEPHEN NDAWN    N/A     82  72  69 E10         N/A
GREENBUSH NDAW   N/A     73  68  83 SE10        N/A
$$
  *****  WEATHER ACROSS CENTRAL AND WEST MINNESOTA  *****

CITY           SKY/WX    TMP DP  RH WIND       PRES   REMARKS
FOSSTON        FAIR      84  68  58 S6        29.80F
BEMIDJI        FAIR      84  62  47 SE17      29.82F
PARK RAPIDS    FAIR      86  66  51 SE15      29.83F
ELBOW LAKE     FAIR      83  74  74 SE12      29.82F HAZE    HX  90
WADENA         PTSUNNY   82  70  65 S9        29.83F
DETROIT LAKES  FAIR      82  70  65 SE7       29.82F
MOORHEAD       FAIR      88  70  55 S3        29.77F HX  92
FERGUS FALLS   FAIR      82  73  74 SE10      29.79F
MORRIS MN      FAIR      86  72  62 S14       29.81F HX  92
STAPLES        CLOUDY    81  68  65 S10       29.84S
$$
  *****  WEATHER ELSEWHERE ACROSS MINNESOTA  *****

CITY           SKY/WX    TMP DP  RH WIND       PRES   REMARKS
DULUTH         FAIR      75  64  68 E9        29.92F
INTRNTL FALLS  FAIR      78  59  51 SE14      29.87F
ELY            FAIR      81  57  44 S3        29.92F
CLOQUET        FAIR      77  64  65 E8        29.89F
WHEATON        FAIR      84  72  65 SE12      29.80F
BRAINERD       CLOUDY    80  69  69 SE10      29.85F
HIBBING        FAIR      80  63  55 S12       29.89F
ALEXANDRIA     FAIR      82  72  71 S13       29.86S
SAINT CLOUD    FAIR      80  72  76 SE13      29.85F
MINNEAPOLIS    CLOUDY    77  68  73 S9        29.88F
$$

  *****  WEATHER ACROSS SOUTH DAKOTA  *****

CITY           SKY/WX    TMP DP  RH WIND       PRES   REMARKS
SIOUX FALLS    PTSUNNY   85  72  65 SE5       29.84R HX  91
BROOKINGS      FAIR      84  72  67 VRB7      29.85S
WATERTOWN      FAIR      86  69  56 S6        29.84R HX  90
HURON          FAIR      89  71  55 S9G16     29.79F HX  95
SISSETON         N/A     89  76  65 SE12      29.77F HX 100
ABERDEEN       FAIR      87  73  62 MISG      29.80F HX  94
MITCHELL       FAIR      88  70  55 SE12      29.80F HX  93
PIERRE         FAIR      93  71  48 VRB3      29.78  HX 100
MOBRIDGE       FAIR      89  74  60 NW3       29.78F HX  98
RAPID CITY     FAIR      92  56  29 N21G31    29.91S HAZE    HX  90
$$

  *****  SOME WEATHER IN NEARBY STATES *****

CITY           SKY/WX    TMP DP  RH WIND       PRES   REMARKS
GLASGOW MT     FAIR      87  33  14 MISG      29.88S
GREAT FALLS MT FAIR      82  17   9 W20G29    30.01S
CHEYENNE WY    FAIR      90  40  17 NE12      30.18F
SCOTTSBLUFF NE FAIR      95  54  25 NW8G18    30.00F HX  93
OMAHA NE       FAIR      99  72  41 S18G25    29.77F HX 108
DES MOINES IA  FAIR      98  73  44 S14       29.82F HX 108
DAVENPORT IA   FAIR      88  78  72 SE8       29.93F HX 101
CHICAGO IL     PTSUNNY   87  71  58 S8        29.96S HX  93
EAU CLAIRE WI  LGT RAIN  73  70  90 S9        29.91F
LA CROSSE WI   LGT RAIN  74  70  87 CALM      29.93S
$$

  *****  SOME NATIONAL WEATHER *****

CITY           SKY/WX    TMP DP  RH WIND       PRES   REMARKS
LA GUARDIA NY  PTSUNNY   92  64  39 W13       29.85F HX  93
RALEIGH NC     PTSUNNY   96  67  38 NW7       29.98F HX 100
ATLANTA GA     PTSUNNY   91  70  49 CALM      30.03F HX  96
NEW ORLEANS LA PTSUNNY   89  76  65 SW6       30.01S HX 100
OKLAHOMA CITY  FAIR      99  64  31 SW14G20   29.96F HX 101
ALBUQUERQUE NM FAIR      85  49  28 S8        30.18F
SALT LAKE CITY FAIR      93  52  24 VRB5      30.05F HX  90
LOS ANGELES CA FAIR      75  64  68 W12       29.97S
BOISE ID       FAIR      84  43  23 W13       30.07F
SEATTLE WA     PTSUNNY   69  54  58 W7        30.16S
$$

*** WEATHER ACROSS MANITOBA...SASKATCHEWAN AND ONTARIO ***
                ***ONTARIO***

CITY           SKY/WX    TMP DP  RH WIND       PRES   REMARKS
GERALDTON      PTSUNNY   72  50  46 NW6       29.96R
THUNDER BAY    LGT RAIN  72  63  73 SW6       29.95F
SIOUX LOOKOUT  CLOUDY    77  57  50 SE5       29.92F
TORONTO        MOSUNNY   84  57  39 NW10G21   29.91F
BIG TROUT LK   MOSUNNY   66  41  39 NW8       29.95S
PICKLE LAKE    MOSUNNY   68  39  34 N3        29.97F
DRYDEN         PTSUNNY   75  55  50 S9        29.91F
KENORA         TSTM      70  59  68 S9        29.92R
$$
                *** MANITOBA***

CITY           SKY/WX    TMP DP  RH WIND       PRES   REMARKS
BRANDON        CLOUDY    73  64  73 NE14      29.80F
DAUPHIN        MOSUNNY   73  61  64 E13       29.83F
ISLAND LAKE    MOSUNNY   68  41  37 SW5       29.98F
PILOT MOUND      N/A     75  68  78 SE7         N/A
THE PAS        MOSUNNY   72  46  40 E8        29.95S
THOMPSON       MOSUNNY   72  37  28 CALM      29.95F
WINNIPEG       CLOUDY    66  63  88 NE18G29   29.85F
LYNN LAKE      SUNNY     70  39  32 CALM      29.96F
CHURCHILL      MOSUNNY   57  43  58 N6        29.94S
GILLAM         MOSUNNY   70  43  37 W10       29.93
$$
                ***SASKATCHEWAN***

CITY           SKY/WX    TMP DP  RH WIND       PRES   REMARKS
ESTEVAN        MOSUNNY   77  66  69 SW12      29.82S
KINDERSLEY     MOSUNNY   72  54  53 N9        29.87F
LLOYDMINSTER   PTSUNNY   68  55  64 NW9       29.84R
PRINCE ALBERT  LGT RAIN  59  59 100 E9        29.88F
REGINA         MOSUNNY   81  55  41 SW10      29.80F
YORKTON        MOSUNNY   75  64  69 SE10      29.81F
N. BATTLEFORD  LGT RAIN  66  59  77 S6        29.86F
LA RONGE       CLOUDY    68  50  52 NE14      29.90F
SASKATOON      CLOUDY    64  57  77 NE14      29.84F
SWIFT CURRENT  SUNNY     73  50  43 W18G29    29.89S
$$
NOTE: THESE ARE AUTOMATED STATIONS WITH LIMITED QUALITY CONTROL
      "FAIR" INDICATES FEW OR NO CLOUDS BELOW 12,000 FEET WITH NO
      SIGNIFICANT WEATHER AND/OR OBSTRUCTIONS TO VISIBILITY.
      SKY/WX - SKY CONDITION AND SIGNIFICANT WEATHER.
      TMP - AIR TEMPERATURE.    DP   - DEWPOINT TEMPERATURE.
      RH  - RELATIVE HUMIDITY.  PRES - PRESSURE.
      HX  - HEAT INDEX.         WCI  - WIND CHILL INDEX.
$




USA.gov is the U.S. government's official web portal to all federal, state and local government web resources and services.